Location: Fort Wayne
(41.1310°N, 85.1290°W)
Time: 06:41:59
(UTC-04:00)

IDEFIX/ARIANE 42P - Visible Passes

Search period start: 31 October 2014 00:00
Search period end: 09 November 2014 23:00
Orbit: 786 x 803 km, 98.3° (Epoch: 29 October)

Date Brightness Start Highest point End Pass type
(mag) Time Alt. Az. Time Alt. Az. Time Alt. Az.
31 Oct 4.5 19:27:05 10° ENE 19:27:06 10° ENE 19:27:49 10° NE visible
31 Oct 3.5 21:07:55 37° N 21:07:55 37° N 21:11:03 10° N visible
01 Nov 3.6 20:39:36 31° NNE 20:39:36 31° NNE 20:42:42 10° N visible
01 Nov 5.2 22:20:26 15° NW 22:20:26 15° NW 22:21:42 10° NW visible
02 Nov 3.9 19:11:16 22° NE 19:11:16 22° NE 19:14:01 10° NNE visible
02 Nov 4.6 20:52:06 23° NW 20:52:06 23° NW 20:54:10 10° NNW visible
03 Nov 4.3 18:42:57 14° NE 18:42:57 14° NE 18:44:45 10° NNE visible
03 Nov 4.1 20:23:47 28° NNW 20:23:47 28° NNW 20:26:14 10° NNW visible
04 Nov 3.8 19:55:27 29° N 19:55:27 29° N 19:58:01 10° N visible
05 Nov 3.9 19:27:08 23° NNE 19:27:08 23° NNE 19:29:32 10° N visible
05 Nov 5.1 21:07:58 15° NW 21:07:58 15° NW 21:09:04 10° NW visible
06 Nov 4.2 18:58:48 17° NE 18:58:48 17° NE 19:00:39 10° NNE visible
06 Nov 4.6 20:39:38 21° NNW 20:39:38 21° NNW 20:41:20 10° NNW visible
07 Nov 4.5 18:30:27 10° NE 18:30:27 10° NE 18:30:38 10° NE visible
07 Nov 4.2 20:11:17 24° N 20:11:17 24° N 20:13:16 10° N visible
08 Nov 4.1 19:42:57 22° N 19:42:57 22° N 19:44:56 10° N visible
09 Nov 4.2 19:14:36 18° NNE 19:14:36 18° NNE 19:16:17 10° N visible
09 Nov 5.1 20:55:26 15° NNW 20:55:26 15° NNW 20:56:19 10° NNW visible
